EW0888 Miami Beach FL US current weather conditions

sailwx.info

Wind from 022 at 4 knots gusting 17

Air temperature 20.6° C
Dewpoint 15.5° C

Last reported at 2020-Feb-22 16:05 UTC.
Time now 2020-Feb-22 16:56 UTC

Location: N 25°50' W 080°08'.
View on Google Maps.

See reports from other nearby stations

  
Tides and Currents Weather Stations Pressure Air Temp Water Temp Dewpoint Dewpoint Depression Visibility Wind Speed Wind Dir Waves Ship Positions
date/time (UTC)wind fromknots sea level pressurealtimeterstation pressurevisibilityair tempwater tempwave heightnotes
2020-Feb-22 16:05 022 4 gusting 17 20.6
2020-Feb-22 16:01 032 5 gusting 17 20.6
2020-Feb-22 15:55 049 3 gusting 11 20.0
2020-Feb-22 15:51 012 3 gusting 13 19.4
2020-Feb-22 15:46 019 3 gusting 13 19.4
2020-Feb-22 15:40 352 2 gusting 15 19.4
2020-Feb-22 15:35 348 6 gusting 15 19.4
2020-Feb-22 15:31 352 2 gusting 8 19.4
2020-Feb-22 15:25 298 3 gusting 8 20.0
2020-Feb-22 15:20 015 2 gusting 8 20.0
2020-Feb-22 15:16 016 1 gusting 12 18.9
2020-Feb-22 15:10 329 3 gusting 12 18.3
2020-Feb-22 15:05 337 0 gusting 5 17.2
2020-Feb-22 15:01 019 0 gusting 6 16.7
2020-Feb-22 14:55 340 2 gusting 8 16.7
2020-Feb-22 14:51 032 2 gusting 9 16.1
2020-Feb-22 14:46 318 5 gusting 9 16.1
2020-Feb-22 14:40 328 3 gusting 8 16.1
2020-Feb-22 14:35 352 3 gusting 7 16.1
2020-Feb-22 14:31 014 2 gusting 8 16.1
2020-Feb-22 14:25 327 2 gusting 8 16.1
2020-Feb-22 14:20 321 0 gusting 5 16.1
2020-Feb-22 14:16 352 0 gusting 6 15.6
2020-Feb-22 14:10 005 1 gusting 6 15.0
2020-Feb-22 14:05 308 1 gusting 4 15.0
2020-Feb-22 14:02 350 0 gusting 8 15.0
2020-Feb-22 13:56 352 2 gusting 8 15.0
2020-Feb-22 13:51 337 2 gusting 8 15.0
2020-Feb-22 13:46 327 3 gusting 8 15.0
2020-Feb-22 13:40 348 1 gusting 8 15.0
2020-Feb-22 13:36 321 4 gusting 8 15.0
2020-Feb-22 13:31 313 5 gusting 9 15.0
2020-Feb-22 13:25 026 4 gusting 9 15.0
2020-Feb-22 13:21 310 3 gusting 9 15.0
2020-Feb-22 13:18 005 2 gusting 8 15.0
2020-Feb-22 13:10 355 2 gusting 8 14.4
2020-Feb-22 13:06 306 4 gusting 9 14.4
2020-Feb-22 13:00 334 3 gusting 9 14.4
2020-Feb-22 12:55 334 2 gusting 7 14.4
2020-Feb-22 12:50 240 2 gusting 9 14.4
2020-Feb-22 12:46 355 2 gusting 9 14.4
2020-Feb-22 12:41 340 2 gusting 9 14.4
2020-Feb-22 12:35 343 3 gusting 13 14.4
2020-Feb-22 12:32 352 5 gusting 13 14.4
2020-Feb-22 12:25 352 2 gusting 8 14.4
2020-Feb-22 12:21 289 2 gusting 6 15.0
2020-Feb-22 12:16 339 1 gusting 10 14.4
2020-Feb-22 12:10 327 4 gusting 10 14.4
2020-Feb-22 12:05 360 5 gusting 9 15.0
2020-Feb-22 12:01 340 2 gusting 7 15.0
2020-Feb-22 11:55 355 3 gusting 7 15.0
2020-Feb-22 11:50 339 2 gusting 8 15.0
2020-Feb-22 11:46 313 4 gusting 8 15.0
2020-Feb-22 11:41 295 2 gusting 11 14.4
2020-Feb-22 11:35 326 4 gusting 11 14.4
2020-Feb-22 11:31 319 2 gusting 7 14.4
2020-Feb-22 11:25 009 1 gusting 6 14.4
2020-Feb-22 11:20 14.4
2020-Feb-22 11:16 294 3 gusting 11 13.9
2020-Feb-22 11:10 341 4 gusting 10 14.4
2020-Feb-22 11:05 338 4 gusting 10 13.9
2020-Feb-22 11:02 313 3 gusting 9 13.9
2020-Feb-22 10:55 313 2 gusting 7 13.9
2020-Feb-22 10:50 331 2 gusting 7 13.9
2020-Feb-22 10:46 005 3 gusting 8 13.9
2020-Feb-22 10:40 324 2 gusting 10 13.9
2020-Feb-22 10:36 335 4 gusting 10 13.9
2020-Feb-22 10:32 321 3 gusting 9 13.9
2020-Feb-22 10:26 317 2 gusting 13 13.3
2020-Feb-22 10:20 292 4 gusting 13 13.3
2020-Feb-22 10:16 355 3 gusting 9 13.3
2020-Feb-22 10:10 355 4 gusting 8 13.3
2020-Feb-22 10:05 352 3 gusting 7 13.3
2020-Feb-22 10:01 005 3 gusting 10 13.3
2020-Feb-22 09:55 336 4 gusting 10 13.3
2020-Feb-22 09:50 347 2 gusting 11 13.3
2020-Feb-22 09:46 306 6 gusting 11 13.3
2020-Feb-22 09:40 352 4 gusting 13 13.3
2020-Feb-22 09:35 342 5 gusting 13 13.3
2020-Feb-22 09:31 321 4 gusting 11 13.9
2020-Feb-22 09:26 312 1 gusting 9 13.3
2020-Feb-22 09:21 296 4 gusting 7 13.3
2020-Feb-22 09:17 348 3 gusting 8 13.9
2020-Feb-22 09:10 350 3 gusting 9 13.9
2020-Feb-22 09:05 313 3 gusting 11 13.9
2020-Feb-22 09:01 318 4 gusting 11 13.9
2020-Feb-22 08:55 323 3 gusting 13 13.9
2020-Feb-22 08:50 322 4 gusting 13 13.9
2020-Feb-22 08:47 292 4 gusting 9 13.9
2020-Feb-22 08:40 317 2 gusting 7 13.9
2020-Feb-22 08:35 309 2 gusting 9 13.9
2020-Feb-22 08:31 329 4 gusting 11 13.9
2020-Feb-22 08:25 336 5 gusting 11 13.9
2020-Feb-22 08:20 335 3 gusting 12 13.9
2020-Feb-22 08:16 005 3 gusting 12 13.9
2020-Feb-22 08:10 333 5 gusting 12 13.9
2020-Feb-22 08:06 013 5 gusting 10 13.9
2020-Feb-22 08:01 321 3 gusting 10 13.9
2020-Feb-22 07:55 352 4 gusting 11 13.9
2020-Feb-22 07:50 296 4 gusting 11 13.9
2020-Feb-22 07:46 344 4 gusting 10 13.9
2020-Feb-22 07:40 325 4 gusting 10 13.9
2020-Feb-22 07:35 013 2 gusting 12 13.9
2020-Feb-22 07:31 352 6 gusting 12 13.9
2020-Feb-22 07:25 360 4 gusting 11 13.9
2020-Feb-22 07:20 333 3 gusting 12 13.9
2020-Feb-22 07:16 350 5 gusting 12 13.9
2020-Feb-22 07:10 348 3 gusting 11 13.9
2020-Feb-22 07:05 292 3 gusting 11 14.4
2020-Feb-22 07:02 352 4 gusting 10 14.4
2020-Feb-22 06:55 340 5 gusting 10 14.4
2020-Feb-22 06:50 355 3 gusting 13 14.4
2020-Feb-22 06:46 350 5 gusting 13 14.4
2020-Feb-22 06:40 352 3 gusting 13 14.4
2020-Feb-22 06:35 360 1 gusting 10 14.4
2020-Feb-22 06:32 310 3 gusting 11 14.4
2020-Feb-22 06:25 349 5 gusting 11 14.4
2020-Feb-22 06:21 340 6 gusting 13 14.4
2020-Feb-22 06:17 352 6 gusting 13 14.4
2020-Feb-22 06:11 298 5 gusting 11 14.4
2020-Feb-22 06:05 333 4 gusting 11 14.4
2020-Feb-22 06:01 307 5 gusting 11 14.4
2020-Feb-22 05:55 352 1 gusting 11 14.4
2020-Feb-22 05:50 351 4 gusting 11 14.4
2020-Feb-22 05:47 321 5 gusting 11 14.4
2020-Feb-22 05:40 313 4 gusting 14 14.4
2020-Feb-22 05:36 343 6 gusting 14 14.4
2020-Feb-22 05:31 347 4 gusting 14 14.4
2020-Feb-22 05:26 005 4 gusting 14 14.4
2020-Feb-22 05:20 327 4 gusting 13 14.4
2020-Feb-22 05:16 338 6 gusting 13 14.4
2020-Feb-22 05:11 329 6 gusting 14 15.0
2020-Feb-22 05:05 350 6 gusting 14 15.0
2020-Feb-22 05:01 319 4 gusting 13 15.0
2020-Feb-22 04:55 360 5 gusting 11 15.0
2020-Feb-22 04:50 349 4 gusting 13 15.6
2020-Feb-22 04:48 011 6 gusting 14 15.6
2020-Feb-22 04:40 327 6 gusting 14 15.6
2020-Feb-22 04:35 360 6 gusting 17 15.6
2020-Feb-22 04:32 352 7 gusting 17 15.6
2020-Feb-22 04:25 348 5 gusting 11 15.6
2020-Feb-22 04:21 290 3 gusting 12 15.6
2020-Feb-22 04:16 342 6 gusting 14 15.6
2020-Feb-22 04:10 309 6 gusting 14 15.6
2020-Feb-22 04:05 327 5 gusting 12 16.1
2020-Feb-22 04:01 360 5 gusting 12 16.1
2020-Feb-22 03:55 311 5 gusting 13 16.1
2020-Feb-22 03:50 332 7 gusting 13 16.1
2020-Feb-22 03:46 352 6 gusting 13 16.1
2020-Feb-22 03:40 300 5 gusting 13 16.1
2020-Feb-22 03:35 340 5 gusting 13 16.1
2020-Feb-22 03:32 321 4 gusting 13 16.1
2020-Feb-22 03:25 331 6 gusting 13 16.1
2020-Feb-22 03:20 348 5 gusting 12 16.1
2020-Feb-22 03:16 331 3 gusting 13 16.1
2020-Feb-22 03:11 347 6 gusting 14 16.1
2020-Feb-22 03:05 350 6 gusting 14 16.1
2020-Feb-22 03:01 355 5 gusting 14 16.1
2020-Feb-22 02:55 309 6 gusting 14 16.1
2020-Feb-22 02:50 333 5 gusting 12 16.1
2020-Feb-22 02:46 009 4 gusting 12 16.1
2020-Feb-22 02:40 360 6 gusting 13 16.1
2020-Feb-22 02:35 352 5 gusting 13 16.1
2020-Feb-22 02:31 014 5 gusting 12 16.7
2020-Feb-22 02:25 302 5 gusting 14 16.7
2020-Feb-22 02:20 288 5 gusting 14 16.7
2020-Feb-22 02:18 288 4 gusting 13 16.7
2020-Feb-22 02:10 301 6 gusting 13 16.7
2020-Feb-22 02:05 350 6 gusting 13 16.7
2020-Feb-22 02:01 360 6 gusting 12 16.7
2020-Feb-22 01:55 350 4 gusting 11 16.7
2020-Feb-22 01:50 276 4 gusting 12 16.7
2020-Feb-22 01:46 360 5 gusting 12 17.2
2020-Feb-22 01:40 330 5 gusting 14 17.2
2020-Feb-22 01:36 296 5 gusting 14 17.2
2020-Feb-22 01:31 323 5 gusting 14 17.2
2020-Feb-22 01:25 343 4 gusting 14 17.2
2020-Feb-22 01:20 328 4 gusting 11 17.2
2020-Feb-22 01:16 352 5 gusting 11 17.2
2020-Feb-22 01:10 352 4 gusting 12 17.2
2020-Feb-22 01:06 348 5 gusting 12 17.2
2020-Feb-22 01:01 344 5 gusting 12 17.8
2020-Feb-22 00:55 347 5 gusting 13 17.8
2020-Feb-22 00:51 351 5 gusting 13 17.8
2020-Feb-22 00:46 355 4 gusting 10 17.8
2020-Feb-22 00:40 346 3 gusting 16 17.8
2020-Feb-22 00:35 333 6 gusting 16 17.8
2020-Feb-22 00:31 352 5 gusting 12 17.8
2020-Feb-22 00:25 325 4 gusting 12 18.3
2020-Feb-22 00:20 332 4 gusting 12 18.3
2020-Feb-22 00:16 046 5 gusting 13 18.3
2020-Feb-22 00:10 301 6 gusting 13 18.3
2020-Feb-22 00:05 020 5 gusting 11 18.3
2020-Feb-22 00:01 277 4 gusting 9 18.3
2020-Feb-21 23:55 321 4 gusting 9 18.3
2020-Feb-21 23:50 016 4 gusting 10 18.3
2020-Feb-21 23:46 346 3 gusting 10 18.3
2020-Feb-21 23:40 024 2 gusting 13 18.3
2020-Feb-21 23:35 328 4 gusting 13 18.3
2020-Feb-21 23:31 339 2 gusting 9 18.9
2020-Feb-21 23:25 360 4 gusting 10 18.3
2020-Feb-21 23:21 005 3 gusting 11 18.3
2020-Feb-21 23:16 333 4 gusting 11 18.9
2020-Feb-21 23:10 306 5 gusting 12 18.9
2020-Feb-21 23:05 285 5 gusting 12 18.9
2020-Feb-21 23:01 338 5 gusting 11 18.9
2020-Feb-21 22:55 329 6 gusting 11 18.9
2020-Feb-21 22:51 334 4 gusting 11 18.9
2020-Feb-21 22:46 351 3 gusting 12 18.9
2020-Feb-21 22:40 057 4 gusting 12 18.9
2020-Feb-21 22:36 324 5 gusting 10 19.4
2020-Feb-21 22:31 338 3 gusting 10 19.4
2020-Feb-21 22:25 295 5 gusting 10 19.4
2020-Feb-21 22:20 338 3 gusting 10 19.4
2020-Feb-21 22:16 327 3 gusting 10 19.4
2020-Feb-21 22:11 352 3 gusting 10 19.4
2020-Feb-21 22:05 321 1 gusting 12 19.4
2020-Feb-21 22:02 333 4 gusting 12 19.4
2020-Feb-21 21:55 305 5 gusting 13 19.4
2020-Feb-21 21:50 348 3 gusting 13 20.0
2020-Feb-21 21:46 345 4 gusting 12 20.0
2020-Feb-21 21:40 329 2 gusting 11 20.0
2020-Feb-21 21:35 352 4 gusting 12 20.0
2020-Feb-21 21:31 321 4 gusting 12 20.0
2020-Feb-21 21:25 360 4 gusting 10 20.0
2020-Feb-21 21:20 336 4 gusting 8 20.0
2020-Feb-21 21:17 331 3 gusting 8 20.0
2020-Feb-21 21:11 331 2 gusting 9 20.6
2020-Feb-21 21:05 337 5 gusting 9 20.6
2020-Feb-21 21:02 317 3 gusting 10 20.6
2020-Feb-21 20:56 350 4 gusting 10 20.6
2020-Feb-21 20:50 337 4 gusting 9 20.6
2020-Feb-21 20:45 352 4 gusting 9 20.6
2020-Feb-21 20:40 352 4 gusting 11 20.6
2020-Feb-21 20:35 005 4 gusting 11 20.6
2020-Feb-21 20:31 352 4 gusting 10 20.6
2020-Feb-21 20:25 345 5 gusting 10 20.6
2020-Feb-21 20:21 352 3 gusting 10 21.1
2020-Feb-21 20:17 325 5 gusting 10 21.1
2020-Feb-21 20:10 346 1 gusting 12 21.1
2020-Feb-21 20:05 338 3 gusting 12 21.1
2020-Feb-21 20:01 328 5 gusting 11 21.1
2020-Feb-21 19:55 341 3 gusting 10 21.1
2020-Feb-21 19:50 296 4 gusting 10 21.1
2020-Feb-21 19:46 328 3 gusting 10 21.1
2020-Feb-21 19:40 346 5 gusting 13 21.1
2020-Feb-21 19:35 352 5 gusting 13 21.1
2020-Feb-21 19:32 275 3 gusting 9 21.1
2020-Feb-21 19:25 302 3 gusting 12 21.1
2020-Feb-21 19:20 331 4 gusting 13 21.1
2020-Feb-21 19:15 012 5 gusting 13 21.1
2020-Feb-21 19:10 309 5 gusting 13 21.1
2020-Feb-21 19:05 331 4 gusting 10 21.7
2020-Feb-21 19:01 352 3 gusting 10 21.7
2020-Feb-21 18:55 340 4 gusting 10 21.7
2020-Feb-21 18:50 317 3 gusting 8 22.2
2020-Feb-21 18:45 348 2 gusting 9 22.2
2020-Feb-21 18:40 326 4 gusting 9 22.8
2020-Feb-21 18:35 343 2 gusting 11 22.8
2020-Feb-21 18:30 317 2 gusting 11 22.2
2020-Feb-21 18:25 317 3 gusting 9 22.8
2020-Feb-21 18:20 012 4 gusting 9 22.2
2020-Feb-21 18:16 360 4 gusting 8 22.2
2020-Feb-21 18:11 360 3 gusting 10 22.8
2020-Feb-21 18:06 352 4 gusting 10 22.8
2020-Feb-21 18:02 311 4 gusting 14 22.2
2020-Feb-21 17:56 348 3 gusting 14 22.2
2020-Feb-21 17:50 325 6 gusting 13 22.2
2020-Feb-21 17:47 307 2 gusting 10 22.2
2020-Feb-21 17:41 319 4 gusting 10 22.2
2020-Feb-21 17:36 318 3 gusting 9 21.7
2020-Feb-21 17:30 329 4 gusting 12 21.7
2020-Feb-21 17:25 337 5 gusting 12 21.7
2020-Feb-21 17:21 347 5 gusting 12 21.7
2020-Feb-21 17:17 319 5 gusting 9 21.7
2020-Feb-21 17:10 338 1 gusting 11 22.2
2020-Feb-21 17:05 260 4 gusting 13 22.2
2020-Feb-21 17:01 317 4 gusting 13 22.2
2020-Feb-21 16:55 336 4 gusting 13 22.2
2020-Feb-21 16:50 360 7 gusting 13 22.2
2020-Feb-21 16:47 325 4 gusting 13 22.8
2020-Feb-21 16:40 340 3 gusting 13 22.8
2020-Feb-21 16:35 327 4 gusting 10 22.8
2020-Feb-21 16:30 323 5 gusting 10 22.8
2020-Feb-21 16:25 332 5 gusting 13 22.8
2020-Feb-21 16:20 352 5 gusting 13 22.8
2020-Feb-21 16:16 235 4 gusting 13 23.3
2020-Feb-21 16:10 009 4 gusting 12 23.9
2020-Feb-21 16:05 218 6 gusting 12 25.6
2020-Feb-21 16:01 331 1 gusting 7 26.1
2020-Feb-21 15:55 298 1 gusting 7 26.1
2020-Feb-21 15:51 225 2 gusting 7 26.1
2020-Feb-21 15:46 281 0 gusting 4 26.1
2020-Feb-21 15:40 156 0 gusting 4 26.1
2020-Feb-21 15:35 280 1 gusting 5 25.6
2020-Feb-21 15:31 25.0
2020-Feb-21 15:26 253 2 gusting 8 25.0
2020-Feb-21 15:21 351 1 gusting 8 25.0
2020-Feb-21 15:17 294 2 gusting 6 25.0
2020-Feb-21 15:10 329 1 gusting 5 25.0
2020-Feb-21 15:05 300 0 gusting 5 25.0
2020-Feb-21 15:02 24.4
2020-Feb-21 14:55 319 1 gusting 5 24.4
2020-Feb-21 14:51 327 0 gusting 5 24.4
2020-Feb-21 14:47 298 0 gusting 5 23.9
2020-Feb-21 14:40 23.9
2020-Feb-21 14:35 352 0 gusting 6 23.9
2020-Feb-21 14:31 321 1 gusting 7 23.3
2020-Feb-21 14:25 242 2 gusting 7 23.3
2020-Feb-21 14:20 330 1 gusting 6 23.3
2020-Feb-21 14:17 310 1 gusting 7 22.8
2020-Feb-21 14:11 332 1 gusting 7 22.8
2020-Feb-21 14:05 317 2 gusting 7 22.8
2020-Feb-21 14:02 276 1 gusting 6 22.8
2020-Feb-21 13:55 325 2 gusting 6 22.2
2020-Feb-21 13:50 332 1 gusting 7 22.2
2020-Feb-21 13:46 309 2 gusting 7 22.2
2020-Feb-21 13:41 315 1 gusting 8 22.2
2020-Feb-21 13:35 341 1 gusting 8 21.7
2020-Feb-21 13:30 317 2 gusting 8 21.7
2020-Feb-21 13:26 286 1 gusting 7 21.7
2020-Feb-21 13:21 336 1 gusting 6 21.7
2020-Feb-21 13:16 329 2 gusting 7 21.7
2020-Feb-21 13:10 321 3 gusting 7 21.7
2020-Feb-21 13:05 261 2 gusting 7 21.7
2020-Feb-21 13:01 288 1 gusting 6 21.1
2020-Feb-21 12:55 284 2 gusting 8 21.1
2020-Feb-21 12:50 322 2 gusting 8 21.1
2020-Feb-21 12:47 249 2 gusting 5 21.1
2020-Feb-21 12:40 315 1 gusting 6 21.1
2020-Feb-21 12:35 334 1 gusting 6 21.1
2020-Feb-21 12:32 298 1 gusting 6 21.1
2020-Feb-21 12:25 326 0 gusting 6 21.1
2020-Feb-21 12:20 328 0 gusting 4 21.1
2020-Feb-21 12:16 21.1
2020-Feb-21 12:10 309 1 gusting 6 21.1
2020-Feb-21 12:06 265 1 gusting 5 21.1
2020-Feb-21 12:01 279 0 gusting 5 21.1
2020-Feb-21 11:56 306 0 gusting 4 21.1
2020-Feb-21 11:50 329 0 gusting 6 21.1
2020-Feb-21 11:46 315 1 gusting 6 21.1
2020-Feb-21 11:41 344 1 gusting 5 21.1
2020-Feb-21 11:35 299 1 gusting 5 21.1
2020-Feb-21 11:31 333 0 gusting 6 21.1
2020-Feb-21 11:26 299 1 gusting 6 21.1
2020-Feb-21 11:20 323 1 gusting 6 21.7
2020-Feb-21 11:17 327 0 gusting 6 21.7
2020-Feb-21 11:10 304 1 gusting 6 21.7
2020-Feb-21 11:05 307 0 gusting 6 21.7
2020-Feb-21 11:01 313 1 gusting 7 21.7
2020-Feb-21 10:55 279 2 gusting 7 21.7
2020-Feb-21 10:50 329 1 gusting 5 21.7
2020-Feb-21 10:47 304 1 gusting 7 21.7
2020-Feb-21 10:40 255 2 gusting 7 21.7
2020-Feb-21 10:35 328 1 gusting 7 21.7
2020-Feb-21 10:31 314 2 gusting 7 21.7
2020-Feb-21 10:25 336 2 gusting 7 21.7
2020-Feb-21 10:20 283 1 gusting 5 21.7
2020-Feb-21 10:16 305 1 gusting 6 21.7
2020-Feb-21 10:10 232 1 gusting 6 21.7
2020-Feb-21 10:05 352 1 gusting 5 21.7
2020-Feb-21 10:01 334 1 gusting 7 21.7
2020-Feb-21 09:55 21.7
2020-Feb-21 09:50 304 1 gusting 9 21.7
2020-Feb-21 09:46 348 2 gusting 9 21.7
2020-Feb-21 09:40 315 2 gusting 7 21.7
2020-Feb-21 09:35 308 2 gusting 7 21.7
2020-Feb-21 09:32 300 1 gusting 7 21.7
2020-Feb-21 09:25 321 1 gusting 6 21.7
2020-Feb-21 09:20 309 2 gusting 6 21.7
2020-Feb-21 09:16 293 1 gusting 6 22.2
2020-Feb-21 09:10 259 1 gusting 6 22.2
2020-Feb-21 09:05 281 1 gusting 4 22.2
2020-Feb-21 09:01 300 1 gusting 6 22.2
2020-Feb-21 08:56 302 1 gusting 6 22.2
2020-Feb-21 08:50 317 2 gusting 6 22.2
2020-Feb-21 08:47 277 0 gusting 6 22.2
2020-Feb-21 08:40 306 1 gusting 6 22.2
2020-Feb-21 08:35 295 1 gusting 6 22.2
2020-Feb-21 08:31 333 0 gusting 7 22.2
2020-Feb-21 08:25 310 2 gusting 7 22.2
2020-Feb-21 08:20 312 1 gusting 8 22.2
2020-Feb-21 08:17 340 1 gusting 8 22.2
2020-Feb-21 08:10 217 1 gusting 5 22.2
2020-Feb-21 08:05 22.8
2020-Feb-21 08:02 329 1 gusting 7 22.8
2020-Feb-21 07:55 287 2 gusting 8 22.8
2020-Feb-21 07:50 277 2 gusting 8 22.8
2020-Feb-21 07:46 342 1 gusting 6 22.8
2020-Feb-21 07:41 259 1 gusting 6 22.8
2020-Feb-21 07:36 276 1 gusting 6 22.8
2020-Feb-21 07:30 323 1 gusting 6 22.8
2020-Feb-21 07:25 320 2 gusting 6 22.8
2020-Feb-21 07:20 274 1 gusting 5 22.8
2020-Feb-21 07:17 306 1 gusting 5 22.8
2020-Feb-21 07:10 301 1 gusting 3 22.8
2020-Feb-21 07:06 292 0 gusting 4 22.8
2020-Feb-21 07:01 325 1 gusting 4 22.8
2020-Feb-21 06:55 23.3
2020-Feb-21 06:51 331 0 gusting 6 23.3
2020-Feb-21 06:47 315 1 gusting 6 23.3
2020-Feb-21 06:41 279 1 gusting 6 23.3
2020-Feb-21 06:35 308 1 gusting 6 23.3
2020-Feb-21 06:32 307 0 gusting 4 23.3
2020-Feb-21 06:25 317 0 gusting 3 23.3
2020-Feb-21 06:20 324 23.3
2020-Feb-21 06:16 324 0 gusting 3 23.3
2020-Feb-21 06:10 332 23.3
2020-Feb-21 06:06 281 23.3
2020-Feb-21 06:01 281 23.3
2020-Feb-21 05:56 306 23.9
2020-Feb-21 05:50 304 23.9
2020-Feb-21 05:46 23.9
2020-Feb-21 05:40 288 0 gusting 3 23.9
2020-Feb-21 05:35 323 23.9
2020-Feb-21 05:32 275 23.9
2020-Feb-21 05:25 23.9
2020-Feb-21 05:21 302 0 gusting 2 23.9
2020-Feb-21 05:17 304 23.9
2020-Feb-21 05:11 304 23.9
2020-Feb-21 05:06 23.9
2020-Feb-21 05:01 304 23.9
2020-Feb-21 04:55 23.9
2020-Feb-21 04:50 304 23.9
2020-Feb-21 04:47 304 23.9
2020-Feb-21 04:40 304 23.9
2020-Feb-21 04:35 304 24.4
2020-Feb-21 04:32 24.4
2020-Feb-21 04:25 23.9
2020-Feb-21 04:20 304 23.9
2020-Feb-21 04:16 304 23.9
2020-Feb-21 04:10 304 23.9
2020-Feb-21 04:05 23.9
2020-Feb-21 04:01 305 23.9
2020-Feb-21 03:55 305 23.9
2020-Feb-21 03:50 305 23.9
2020-Feb-21 03:45 23.9
2020-Feb-21 03:40 23.9
2020-Feb-21 03:35 305 23.9
2020-Feb-21 03:32 23.9
2020-Feb-21 03:25 23.9
2020-Feb-21 03:20 23.9
2020-Feb-21 03:16 23.9
2020-Feb-21 03:10 23.9
2020-Feb-21 03:05 23.9
2020-Feb-21 03:01 305 23.9
2020-Feb-21 02:56 305 23.9
2020-Feb-21 02:50 23.9
2020-Feb-21 02:46 23.9
2020-Feb-21 02:40 24.4
2020-Feb-21 02:35 305 24.4
2020-Feb-21 02:31 305 24.4
2020-Feb-21 02:25 24.4
2020-Feb-21 02:21 24.4
2020-Feb-21 02:16 24.4
2020-Feb-21 02:10 24.4
2020-Feb-21 02:05 24.4
2020-Feb-21 02:01 304 0 gusting 3 24.4
2020-Feb-21 01:55 309 24.4
2020-Feb-21 01:50 25.0
2020-Feb-21 01:46 309 25.0
2020-Feb-21 01:40 178 25.0
2020-Feb-21 01:35 177 25.0
2020-Feb-21 01:31 177 0 gusting 1 25.6
2020-Feb-21 01:26 176 25.6
2020-Feb-21 01:20 175 25.6
2020-Feb-21 01:16 25.6
2020-Feb-21 01:10 175 25.6
2020-Feb-21 01:05 169 25.6
2020-Feb-21 01:01 153 25.6
2020-Feb-21 00:55 178 25.6
2020-Feb-21 00:50 173 25.6
2020-Feb-21 00:46 162 25.6
2020-Feb-21 00:40 25.6
2020-Feb-21 00:35 25.6
2020-Feb-21 00:32 172 0 gusting 6 25.6
2020-Feb-21 00:25 168 0 gusting 4 25.6
2020-Feb-21 00:20 161 0 gusting 3 25.6
2020-Feb-21 00:17 25.6
2020-Feb-21 00:10 176 0 gusting 4 25.6
2020-Feb-21 00:06 25.6
2020-Feb-21 00:03 154 25.6
2020-Feb-20 23:56 158 25.6
2020-Feb-20 23:51 25.6
2020-Feb-20 23:46 187 0 gusting 6 25.6
2020-Feb-20 23:40 136 25.6
2020-Feb-20 23:35 238 25.6
2020-Feb-20 23:31 25.6
2020-Feb-20 23:25 26.1
2020-Feb-20 23:20 132 26.1
2020-Feb-20 23:16 124 0 gusting 4 26.1
2020-Feb-20 23:10 205 0 gusting 6 26.1
2020-Feb-20 23:05 206 0 gusting 6 26.1
2020-Feb-20 23:01 188 0 gusting 5 26.1
2020-Feb-20 22:55 26.1
2020-Feb-20 22:50 185 26.1
2020-Feb-20 22:46 188 0 gusting 4 26.1
2020-Feb-20 22:40 200 26.1
2020-Feb-20 22:35 205 26.1
2020-Feb-20 22:31 26.1
2020-Feb-20 22:25 26.1
2020-Feb-20 22:20 169 26.7
2020-Feb-20 22:17 173 0 gusting 4 26.7
2020-Feb-20 22:10 26.7
2020-Feb-20 22:05 26.7
2020-Feb-20 22:02 175 1 gusting 4 26.7
2020-Feb-20 21:55 198 26.7
2020-Feb-20 21:50 26.7
2020-Feb-20 21:46 192 1 gusting 7 26.7
2020-Feb-20 21:40 173 1 gusting 7 26.7
2020-Feb-20 21:35 194 1 gusting 6 26.7
2020-Feb-20 21:31 166 1 gusting 10 26.7
2020-Feb-20 21:25 195 2 gusting 10 26.7
2020-Feb-20 21:20 189 1 gusting 7 26.7
2020-Feb-20 21:16 161 1 gusting 7 27.2
2020-Feb-20 21:10 167 1 gusting 6 27.2
2020-Feb-20 21:05 221 2 gusting 6 27.2
2020-Feb-20 21:02 197 2 gusting 6 27.2
2020-Feb-20 20:55 182 2 gusting 6 27.8
2020-Feb-20 20:50 119 1 gusting 6 27.8
2020-Feb-20 20:46 142 0 gusting 6 27.8
2020-Feb-20 20:40 193 1 gusting 6 27.8
2020-Feb-20 20:35 163 0 gusting 6 27.8
2020-Feb-20 20:31 201 1 gusting 6 28.3
2020-Feb-20 20:25 229 1 gusting 6 28.3
2020-Feb-20 20:20 084 0 gusting 6 28.3
2020-Feb-20 20:16 171 0 gusting 6 28.3
2020-Feb-20 20:10 176 2 gusting 6 28.9
2020-Feb-20 20:05 196 0 gusting 3 28.9
2020-Feb-20 20:02 182 0 gusting 7 28.9
2020-Feb-20 19:55 183 1 gusting 7 28.9
2020-Feb-20 19:50 173 1 gusting 7 28.9
2020-Feb-20 19:46 151 1 gusting 7 28.9
2020-Feb-20 19:40 152 2 gusting 6 28.9
2020-Feb-20 19:35 148 2 gusting 6 28.9
2020-Feb-20 19:31 150 2 gusting 5 28.9
2020-Feb-20 19:25 173 1 gusting 6 28.9
2020-Feb-20 19:20 128 1 gusting 6 28.9
2020-Feb-20 19:17 112 2 gusting 7 28.9
2020-Feb-20 19:10 156 3 gusting 7 28.9
2020-Feb-20 19:05 146 1 gusting 6 29.4
2020-Feb-20 19:02 173 1 gusting 6 28.9
2020-Feb-20 18:55 071 2 gusting 6 28.9
2020-Feb-20 18:50 186 1 gusting 7 28.9
2020-Feb-20 18:47 144 3 gusting 7 28.9
2020-Feb-20 18:40 117 2 gusting 6 28.9
2020-Feb-20 18:35 207 2 gusting 6 28.9
2020-Feb-20 18:31 188 1 gusting 6 28.9
2020-Feb-20 18:25 161 1 gusting 7 28.9
2020-Feb-20 18:20 152 2 gusting 7 28.9
2020-Feb-20 18:16 181 1 gusting 7 28.9
2020-Feb-20 18:10 142 2 gusting 7 28.3
2020-Feb-20 18:06 140 2 gusting 9 28.9
2020-Feb-20 18:01 088 2 gusting 9 28.9
2020-Feb-20 17:55 147 3 gusting 6 28.9
2020-Feb-20 17:50 164 2 gusting 7 28.9
2020-Feb-20 17:47 150 2 gusting 7 28.9
2020-Feb-20 17:40 153 2 gusting 6 28.9
2020-Feb-20 17:35 155 1 gusting 6 28.9
2020-Feb-20 17:31 112 1 gusting 6 28.3
2020-Feb-20 17:25 132 1 gusting 6 28.3
2020-Feb-20 17:21 180 2 gusting 6 28.3
2020-Feb-20 17:16 148 1 gusting 8 28.3
2020-Feb-20 17:10 115 1 gusting 8 27.8
2020-Feb-20 17:05 175 2 gusting 6 27.8
2020-Feb-20 17:02 178 1 gusting 6 27.8
2020-Feb-20 16:55 109 0 gusting 6 27.2
2020-Feb-20 16:50 191 2 gusting 6 27.2
2020-Feb-20 16:45 195 2 gusting 6 27.2
2020-Feb-20 16:40 146 1 gusting 6 26.7
2020-Feb-20 16:35 133 1 gusting 5 26.7
2020-Feb-20 16:31 133 1 gusting 5 26.1
2020-Feb-20 16:25 109 0 gusting 4 26.1
2020-Feb-20 16:21 130 0 gusting 4 25.6
2020-Feb-20 16:16 113 25.0
2020-Feb-20 16:11 101 0 gusting 5 25.6
2020-Feb-20 16:06 146 2 gusting 7 25.6
2020-Feb-20 16:02 129 2 gusting 7 25.6